Wind_Speed
27 29 28 25 25 21 23 15 9 7 2 13 23 26 31 31 32 39 42 44 45 33 36 41 41 44 46 45 43 43 45 47 50 49 48 49 50 52 51 49 49 50 48 48
28 25 23 24 24 24 23 23 22 23 23 25 22 26 32 37 31 35 39 38 39 33 35 38 40 40 41 39 38 36 39 43 43 45 44 43 46 48 48 49 48 49 49 48
28 21 20 14 26 27 25 29 31 32 33 32 33 34 36 38 26 28 36 36 37 34 32 33 38 39 39 41 41 39 40 44 45 44 45 45 47 47 49 51 52 51 53 53
21 23 18 9 17 24 28 28 39 39 37 43 38 44 43 40 33 29 29 30 35 37 36 35 38 41 42 44 46 47 46 46 48 49 49 51 52 51 51 53 53 53 53 54
20 28 19 18 22 22 32 32 30 32 36 37 46 46 40 34 32 30 26 27 31 33 37 39 40 43 47 49 48 48 47 44 45 47 48 49 52 54 54 55 55 55 55 53
23 27 30 28 26 27 26 26 29 27 28 37 36 40 36 25 26 28 26 26 25 30 34 37 39 43 47 50 47 42 39 37 40 41 41 45 48 51 52 51 52 52 50 51
24 24 27 29 29 26 24 27 30 33 37 39 24 24 11 8 4 14 23 19 29 35 41 41 36 39 41 42 43 43 44 43 42 44 46 49 50 52 53 53 53 53 53 52
24 28 23 28 29 27 22 26 24 28 30 29 26 29 20 26 19 23 19 31 37 42 48 50 46 43 43 44 46 47 49 51 53 52 53 53 54 56 57 58 59 60 59 59
19 15 30 36 31 30 27 30 30 34 35 38 35 30 23 25 26 26 31 28 34 43 48 50 54 53 50 51 47 44 50 55 56 58 57 57 59 59 61 62 62 62 62 64
22 23 22 24 24 25 28 28 30 36 41 40 39 32 36 35 35 33 35 42 44 49 51 55 55 53 53 50 47 50 54 53 56 59 61 61 60 59 60 62 63 62 63 64
31 33 27 31 29 29 34 31 29 36 39 37 35 29 37 46 45 41 40 37 45 49 50 51 51 50 55 57 55 56 58 58 59 60 61 62 61 61 59 56 58 61 62 64
32 32 32 33 36 36 39 37 37 40 40 38 40 40 38 36 40 49 55 50 52 56 58 62 59 56 56 59 54 59 61 60 63 62 60 59 60 61 60 61 61 60 63 66
32 37 37 36 32 30 36 41 43 46 46 48 44 48 39 40 44 44 44 45 51 51 52 55 62 63 62 55 57 60 62 63 65 64 63 61 61 62 63 62 62 62 61 64
31 33 36 38 32 29 35 31 32 36 40 48 45 46 45 46 48 46 44 49 55 58 60 63 66 67 66 66 65 62 63 63 64 63 63 61 58 59 57 55 54 55 52 52
32 31 31 33 34 30 31 36 38 43 41 46 41 43 42 46 45 44 45 49 47 52 53 57 58 60 60 62 65 64 59 59 60 61 58 55 53 52 53 53 51 47 50 50
31 30 30 31 32 31 30 33 39 41 41 47 45 45 52 49 48 54 53 48 51 52 52 53 58 64 62 62 61 60 59 56 50 48 52 55 56 57 56 55 55 51 48 51
33 31 31 28 27 25 25 26 30 34 37 40 41 42 47 53 56 54 52 52 49 48 51 53 53 52 48 52 54 54 50 48 50 53 57 60 62 63 64 65 60 58 55 53
30 29 28 24 23 22 20 19 21 24 29 32 35 35 38 43 43 42 45 45 44 43 43 45 47 46 47 47 45 44 48 51 55 60 64 69 72 73 73 71 69 65 61 57
21 20 21 23 20 17 17 20 19 18 20 23 26 22 28 33 31 34 35 35 37 39 40 42 43 42 41 40 44 47 51 57 61 61 64 66 67 65 64 60 61 59 62 62
14 14 15 15 19 20 17 14 14 16 25 20 25 28 28 27 28 33 37 43 42 40 38 38 36 35 38 43 47 51 54 56 55 57 58 55 54 53 50 51 49 48 49 54
17 19 15 12 15 17 19 17 21 23 23 25 28 31 31 32 34 35 38 41 43 44 41 36 35 37 40 45 53 54 48 47 49 54 52 47 44 43 43 37 38 41 37 41
15 18 19 21 20 19 19 22 21 24 28 30 31 31 33 31 34 38 39 40 39 36 35 37 38 42 48 50 50 43 42 45 47 49 47 43 40 38 35 34 34 37 38 35
20 18 18 15 17 26 23 25 25 33 34 33 33 35 37 40 43 41 37 33 29 31 34 38 43 44 43 38 40 40 40 43 44 42 42 40 38 36 33 32 34 37 39 37
22 20 20 20 24 28 28 28 36 38 39 42 39 40 45 45 36 26 23 26 30 34 37 38 36 33 31 32 37 43 44 44 43 40 39 39 41 40 34 34 35 37 38 39
22 23 26 27 29 30 32 34 37 42 46 49 45 37 34 24 22 24 27 30 32 32 31 29 26 27 30 34 37 41 40 38 33 31 32 35 38 39 32 32 37 39 39 42
16 14 15 19 23 27 28 32 40 43 41 40 36 29 26 26 26 28 29 29 27 26 26 24 27 29 31 31 28 24 23 27 29 28 27 33 39 36 26 26 21 16 22 28
Wind_Direction
215 216 216 219 226 225 231 204 173 202 274 276 260 266 261 245 242 250 252 252 254 252 253 256 253 254 259 259 259 259 261 262 264 264 259 258 261 266 267 266 264 263 265 266
211 214 217 221 224 221 226 209 197 218 211 217 233 260 268 261 250 251 255 258 261 259 257 256 257 258 257 257 255 250 250 254 256 261 261 260 258 259 263 265 266 265 269 268
217 201 197 214 227 218 219 206 207 221 198 208 214 223 242 257 250 257 257 258 261 260 250 254 258 258 258 258 257 255 251 253 256 257 261 259 258 259 260 261 262 264 265 266
217 213 193 240 240 219 219 218 219 224 213 215 217 226 234 250 261 257 251 253 262 263 264 259 255 255 257 257 257 256 255 254 258 260 260 262 261 260 260 262 264 264 264 268
207 180 187 213 232 229 234 232 240 230 238 234 228 241 243 241 246 245 251 264 269 269 266 263 262 260 257 259 260 262 262 261 259 260 264 266 266 266 265 265 264 263 265 265
231 220 203 214 228 241 233 240 238 227 224 235 236 239 253 269 273 272 261 265 279 283 277 260 256 258 261 264 269 276 274 269 266 262 260 261 263 263 264 264 265 266 266 267
235 235 240 242 242 249 253 245 244 241 237 247 256 255 251 197 257 249 241 242 257 253 260 271 268 269 272 277 274 270 269 269 266 265 266 266 265 266 266 266 267 266 266 265
243 227 231 233 236 240 239 250 246 252 252 256 229 240 235 258 258 249 235 227 241 249 260 268 276 279 278 275 276 280 281 280 277 275 273 271 270 271 272 271 270 270 270 269
275 272 233 239 239 247 238 228 240 249 250 250 245 244 244 239 243 228 232 215 237 245 252 257 266 272 281 285 286 286 282 275 275 275 274 274 274 272 270 270 270 269 268 267
288 288 270 261 252 249 253 253 241 250 259 259 263 249 234 239 238 248 234 234 229 234 240 251 262 275 283 284 284 284 284 285 284 282 279 276 271 269 270 270 270 269 268 267
275 281 274 274 274 268 268 252 245 256 259 264 266 256 242 239 240 247 256 251 257 254 258 263 267 273 277 280 282 283 281 284 283 283 281 279 279 277 273 272 272 270 269 267
277 282 278 271 268 269 266 264 260 259 261 267 265 257 258 256 251 249 251 259 262 265 261 268 273 272 269 273 278 281 281 283 286 286 284 282 280 280 278 278 274 270 269 267
277 275 275 273 268 259 259 257 251 250 255 252 256 263 263 258 254 254 252 247 253 256 263 265 270 271 277 283 280 279 285 287 287 286 285 285 282 280 278 276 274 273 269 266
279 275 276 278 273 263 257 258 261 256 253 257 258 260 261 262 264 265 262 259 261 261 261 263 262 268 273 272 276 280 281 281 281 283 282 281 279 278 277 273 271 271 269 268
280 277 280 274 271 265 256 254 253 251 254 253 250 254 259 258 264 267 266 263 263 266 264 269 268 270 272 274 279 282 281 282 284 285 285 283 279 276 274 272 270 264 264 266
277 273 276 272 270 267 258 250 250 253 255 256 260 251 251 259 258 272 273 264 263 263 264 267 266 267 273 277 277 280 282 284 283 279 278 280 280 278 275 273 270 268 264 260
282 281 281 270 267 271 267 261 256 252 254 257 261 261 259 258 258 265 265 269 271 268 267 269 273 275 276 275 281 284 285 285 287 286 283 280 278 276 274 271 267 264 263 260
285 282 276 267 262 259 257 258 255 248 249 253 257 259 261 263 261 266 267 266 269 271 273 275 277 279 280 282 281 282 287 290 290 290 290 288 286 285 281 274 266 263 260 260
290 283 274 268 259 255 257 265 267 267 263 260 257 257 266 266 266 270 270 272 276 275 272 271 274 278 279 279 282 285 287 291 293 291 292 292 290 285 280 278 274 271 258 258
290 288 280 266 257 257 257 266 275 265 262 262 251 261 270 275 255 251 260 274 277 278 281 280 279 278 280 283 285 289 292 293 297 299 302 301 297 292 282 275 274 269 261 253
283 280 292 287 274 257 261 248 262 272 270 261 258 267 275 274 276 275 275 275 276 279 281 282 281 283 286 290 289 292 298 302 305 306 309 307 304 301 286 274 273 266 257 260
284 273 272 268 268 263 262 261 268 272 268 264 268 273 277 282 287 284 278 274 274 274 275 279 287 289 286 287 291 296 305 306 308 307 308 308 306 301 288 277 275 266 263 262
260 263 267 252 242 259 265 270 267 260 271 272 274 277 282 282 286 281 274 274 276 279 282 284 283 285 286 288 295 303 305 303 305 306 306 306 306 301 293 283 271 262 265 266
252 255 255 256 252 256 257 259 260 265 271 274 278 281 283 283 276 274 276 279 281 284 285 286 287 289 292 295 299 302 301 301 301 301 302 304 302 295 287 283 278 275 273 265
270 269 265 261 258 257 257 258 262 267 274 283 291 291 282 278 281 283 284 286 287 289 287 289 293 295 296 298 299 299 300 300 301 304 307 311 313 313 317 292 278 269 264 263
281 277 265 263 264 260 259 254 261 269 277 287 285 273 280 286 286 290 289 293 289 287 290 293 295 298 299 299 305 313 319 317 312 315 315 318 323 319 335 315 285 273 283 282
Height
5728 5731 5734 5741 5744 5749 5751 5754 5759 5765 5771 5774 5773 5774 5777 5782 5786 5786 5789 5792 5795 5803 5803 5804 5807 5806 5809 5814 5818 5819 5819 5817 5816 5818 5823 5825 5826 5825 5826 5828 5829 5829 5833 5834
5724 5729 5735 5738 5741 5745 5747 5750 5753 5757 5764 5767 5767 5770 5772 5773 5778 5779 5781 5785 5786 5792 5793 5795 5796 5798 5801 5804 5806 5809 5809 5809 5810 5808 5812 5815 5816 5816 5815 5816 5818 5820 5820 5823
5721 5729 5729 5733 5737 5739 5743 5747 5748 5749 5756 5758 5760 5761 5763 5764 5770 5774 5773 5775 5777 5780 5785 5787 5786 5788 5790 5791 5793 5798 5801 5799 5802 5803 5803 5804 5804 5805 5806 5807 5808 5808 5808 5810
5719 5725 5725 5729 5731 5734 5735 5739 5741 5743 5749 5750 5753 5752 5756 5759 5764 5764 5766 5767 5768 5770 5773 5775 5776 5777 5779 5780 5780 5783 5788 5791 5790 5791 5793 5792 5793 5795 5796 5796 5797 5798 5799 5799
5717 5717 5722 5723 5726 5729 5731 5734 5735 5739 5741 5744 5748 5745 5749 5753 5754 5756 5758 5760 5761 5762 5762 5764 5765 5765 5765 5768 5771 5772 5776 5780 5782 5782 5781 5781 5781 5781 5781 5782 5784 5785 5787 5789
5712 5714 5713 5717 5719 5722 5724 5726 5729 5731 5731 5731 5736 5740 5744 5751 5752 5750 5752 5753 5754 5754 5753 5753 5754 5755 5756 5757 5761 5764 5765 5766 5767 5769 5770 5769 5769 5768 5768 5770 5770 5772 5775 5774
5707 5709 5712 5714 5715 5718 5720 5721 5722 5724 5724 5725 5737 5735 5741 5742 5742 5742 5743 5745 5748 5747 5742 5744 5746 5747 5749 5749 5749 5750 5752 5753 5756 5756 5756 5756 5756 5756 5755 5756 5758 5760 5763 5765
5700 5706 5708 5708 5709 5712 5715 5716 5716 5716 5720 5722 5726 5722 5729 5731 5737 5733 5737 5737 5738 5737 5735 5734 5735 5736 5738 5738 5738 5739 5739 5738 5738 5740 5740 5741 5741 5741 5741 5742 5743 5745 5748 5749
5695 5699 5697 5699 5702 5704 5708 5706 5710 5708 5710 5710 5715 5721 5727 5725 5728 5726 5727 5729 5731 5731 5729 5728 5728 5728 5726 5726 5727 5728 5726 5724 5726 5726 5728 5728 5726 5726 5725 5725 5726 5728 5729 5729
5689 5691 5696 5696 5698 5702 5700 5703 5702 5700 5699 5702 5705 5716 5716 5714 5718 5717 5713 5716 5718 5717 5716 5716 5715 5717 5718 5718 5718 5718 5715 5714 5712 5711 5708 5707 5709 5710 5708 5706 5707 5710 5710 5710
5685 5684 5691 5690 5692 5695 5694 5695 5696 5694 5692 5695 5697 5703 5703 5705 5707 5709 5704 5710 5708 5706 5708 5709 5709 5709 5709 5709 5710 5710 5706 5702 5698 5696 5693 5691 5689 5689 5692 5693 5691 5690 5690 5689
5677 5677 5677 5682 5683 5685 5686 5686 5686 5684 5686 5686 5687 5690 5694 5697 5697 5699 5702 5699 5702 5700 5698 5695 5697 5697 5698 5699 5703 5699 5691 5688 5684 5681 5679 5675 5672 5670 5670 5669 5670 5672 5672 5669
5669 5666 5666 5668 5673 5674 5670 5670 5673 5673 5675 5675 5678 5677 5686 5687 5687 5689 5691 5689 5688 5688 5686 5685 5683 5678 5678 5683 5682 5678 5676 5673 5668 5665 5663 5661 5658 5654 5652 5651 5649 5649 5651 5648
5658 5657 5655 5654 5657 5660 5659 5660 5662 5662 5663 5663 5667 5668 5670 5673 5673 5676 5678 5678 5677 5677 5676 5674 5672 5672 5671 5668 5668 5667 5665 5662 5656 5652 5648 5646 5643 5638 5635 5633 5632 5631 5630 5630
5646 5646 5646 5644 5644 5648 5649 5650 5651 5650 5653 5651 5658 5657 5660 5660 5659 5664 5664 5663 5667 5662 5660 5660 5660 5658 5654 5652 5653 5653 5650 5645 5639 5635 5632 5628 5625 5622 5619 5616 5615 5616 5614 5614
5636 5636 5636 5635 5634 5634 5636 5638 5638 5640 5643 5643 5645 5647 5650 5648 5651 5647 5649 5653 5652 5651 5650 5649 5645 5642 5646 5643 5639 5635 5633 5630 5626 5623 5618 5613 5609 5605 5601 5599 5597 5597 5598 5599
5625 5625 5625 5625 5625 5625 5627 5628 5629 5631 5632 5632 5632 5635 5637 5636 5639 5640 5637 5634 5636 5636 5633 5633 5634 5633 5631 5626 5623 5619 5615 5611 5608 5605 5602 5597 5592 5587 5583 5580 5579 5581 5580 5580
5618 5617 5615 5616 5618 5618 5619 5620 5621 5622 5623 5625 5624 5628 5626 5624 5626 5626 5624 5624 5624 5623 5623 5622 5619 5617 5614 5612 5609 5605 5600 5596 5593 5588 5582 5574 5566 5561 5557 5555 5557 5559 5561 5562
5611 5609 5609 5609 5611 5614 5614 5614 5615 5615 5616 5616 5616 5617 5616 5614 5614 5612 5612 5612 5613 5612 5610 5608 5607 5605 5603 5599 5596 5592 5588 5583 5577 5570 5562 5555 5546 5538 5533 5530 5530 5533 5538 5542
5607 5606 5606 5605 5606 5607 5609 5609 5610 5610 5609 5610 5608 5608 5607 5607 5608 5609 5604 5602 5600 5600 5599 5596 5594 5592 5590 5586 5581 5578 5575 5569 5561 5553 5544 5534 5524 5516 5510 5509 5511 5513 5515 5523
5603 5602 5602 5602 5602 5604 5603 5604 5604 5604 5606 5602 5600 5600 5601 5600 5599 5599 5597 5595 5591 5587 5586 5584 5583 5581 5579 5574 5566 5563 5559 5554 5546 5537 5528 5520 5511 5502 5496 5495 5495 5496 5500 5506
5599 5599 5598 5598 5598 5598 5598 5599 5599 5597 5594 5593 5594 5594 5593 5592 5590 5586 5583 5581 5580 5579 5577 5575 5574 5573 5565 5559 5552 5550 5548 5540 5534 5526 5518 5509 5500 5492 5487 5486 5486 5486 5489 5493
5596 5594 5594 5594 5594 5593 5592 5591 5592 5589 5588 5587 5586 5585 5584 5582 5578 5574 5572 5571 5571 5570 5569 5568 5563 5559 5554 5549 5541 5539 5537 5530 5525 5519 5510 5501 5492 5484 5479 5477 5477 5477 5478 5481
5588 5588 5588 5588 5587 5586 5585 5585 5583 5581 5579 5577 5578 5576 5573 5566 5564 5564 5565 5565 5563 5560 5557 5555 5551 5547 5543 5540 5535 5529 5525 5520 5515 5509 5500 5492 5484 5475 5472 5469 5467 5466 5467 5468
5582 5582 5581 5580 5579 5579 5578 5578 5575 5571 5568 5566 5567 5564 5559 5557 5558 5557 5557 5555 5552 5550 5547 5544 5541 5539 5536 5532 5527 5522 5517 5511 5505 5498 5490 5484 5475 5466 5460 5455 5452 5452 5452 5452
5576 5575 5575 5573 5572 5570 5569 5567 5564 5561 5562 5561 5557 5553 5552 5552 5551 5550 5547 5545 5543 5541 5539 5537 5534 5532 5529 5524 5520 5516 5510 5504 5497 5490 5483 5476 5467 5458 5452 5446 5444 5441 5441 5440